• In Moldova, Republic
  • List of Countries
  • For 7 days
  • Water Temperature
  • Satellite Maps
  • Weather Map
  • Weather Widgets
  • user-avatar
    Login

    Hourly Weather Ganja

    Today, 25 April, Wednesday

    Time Temperature Precipitation Wind Pressure Humidity
    00:00 +11°C° 0 mm 3 mps 729 mmHg 79%
    01:00 +10°C° 0 mm 3 mps 730 mmHg 80%
    02:00 +10°C° 0 mm 2 mps 730 mmHg 82%
    03:00 +10°C° 0 mm 1 mps 730 mmHg 83%
    04:00 +11°C° 0 mm 1 mps 729 mmHg 83%
    05:00 +11°C° 0 mm 1 mps 729 mmHg 82%
    06:00 +10°C° 0 mm 0 mps 729 mmHg 82%
    07:00 +12°C° 0 mm 1 mps 729 mmHg 76%
    08:00 +14°C° 0 mm 1 mps 729 mmHg 69%
    09:00 +15°C° 0 mm 2 mps 728 mmHg 63%
    10:00 +16°C° 0 mm 2 mps 728 mmHg 59%
    11:00 +18°C° 0 mm 2 mps 728 mmHg 55%
    12:00 +19°C° 0 mm 2 mps 727 mmHg 51%
    13:00 +19°C° 0 mm 2 mps 727 mmHg 50%
    14:00 +20°C° 0 mm 2 mps 726 mmHg 48%
    15:00 +21°C° 0 mm 2 mps 726 mmHg 47%
    16:00 +20°C° 0 mm 2 mps 726 mmHg 50%
    17:00 +20°C° 0 mm 2 mps 726 mmHg 52%
    18:00 +20°C° 0 mm 2 mps 726 mmHg 55%
    19:00 +18°C° 0 mm 2 mps 726 mmHg 59%
    20:00 +18°C° 0 mm 1 mps 727 mmHg 64%
    21:00 +16°C° 0 mm 1 mps 727 mmHg 68%
    22:00 +15°C° 0 mm 1 mps 727 mmHg 69%
    23:00 +15°C° 0 mm 1 mps 727 mmHg 71%

    Tomorrow, 26 April, Thursday

    Time Temperature Precipitation Wind Pressure Humidity
    00:00 +14°C° 0 mm 1 mps 727 mmHg 72%
    01:00 +14°C° 0 mm 1 mps 727 mmHg 73%
    02:00 +13°C° 0 mm 1 mps 727 mmHg 74%
    03:00 +13°C° 0 mm 1 mps 727 mmHg 75%
    04:00 +13°C° 0 mm 1 mps 727 mmHg 73%
    05:00 +14°C° 0 mm 1 mps 727 mmHg 71%
    06:00 +14°C° 0 mm 1 mps 728 mmHg 69%
    07:00 +16°C° 0 mm 1 mps 728 mmHg 63%
    08:00 +18°C° 0 mm 2 mps 728 mmHg 56%
    09:00 +20°C° 0 mm 2 mps 728 mmHg 49%
    10:00 +21°C° 0 mm 2 mps 728 mmHg 45%
    11:00 +23°C° 0 mm 2 mps 727 mmHg 41%
    12:00 +24°C° 0 mm 2 mps 727 mmHg 37%
    13:00 +24°C° 0 mm 2 mps 727 mmHg 36%
    14:00 +25°C° 0 mm 3 mps 726 mmHg 36%
    15:00 +25°C° 0 mm 3 mps 726 mmHg 35%
    16:00 +25°C° 0 mm 3 mps 726 mmHg 38%
    17:00 +24°C° 0 mm 3 mps 726 mmHg 41%
    18:00 +22°C° 0 mm 3 mps 726 mmHg 45%
    19:00 +21°C° 0 mm 3 mps 727 mmHg 49%
    20:00 +19°C° 0 mm 2 mps 727 mmHg 52%
    21:00 +18°C° 0 mm 2 mps 728 mmHg 56%
    22:00 +17°C° 0 mm 2 mps 728 mmHg 59%
    23:00 +17°C° 0 mm 2 mps 728 mmHg 62%

    Day after tomorrow, 27 April, Friday

    Time Temperature Precipitation Wind Pressure Humidity
    00:00 +16°C° 0 mm 2 mps 728 mmHg 65%
    01:00 +16°C° 0 mm 1 mps 728 mmHg 67%
    02:00 +15°C° 0 mm 1 mps 728 mmHg 69%
    03:00 +14°C° 0 mm 1 mps 727 mmHg 71%
    04:00 +15°C° 0 mm 1 mps 727 mmHg 70%
    05:00 +15°C° 0 mm 1 mps 727 mmHg 69%
    06:00 +15°C° 0 mm 1 mps 727 mmHg 68%
    07:00 +18°C° 0 mm 1 mps 727 mmHg 64%
    08:00 +19°C° 0 mm 1 mps 727 mmHg 59%
    09:00 +20°C° 0 mm 2 mps 727 mmHg 55%
    10:00 +21°C° 0 mm 2 mps 727 mmHg 52%
    11:00 +23°C° 0 mm 2 mps 726 mmHg 50%
    12:00 +24°C° 0 mm 2 mps 726 mmHg 47%
    13:00 +24°C° 0.1 mm 2 mps 726 mmHg 47%
    14:00 +24°C° 0.1 mm 3 mps 725 mmHg 46%
    15:00 +25°C° 0.1 mm 3 mps 725 mmHg 46%
    16:00 +24°C° 0.1 mm 3 mps 725 mmHg 49%
    17:00 +23°C° 0.1 mm 2 mps 725 mmHg 51%
    18:00 +23°C° 0.1 mm 2 mps 725 mmHg 54%
    19:00 +21°C° 0 mm 2 mps 725 mmHg 56%
    20:00 +21°C° 0 mm 1 mps 726 mmHg 57%
    21:00 +20°C° 0 mm 1 mps 726 mmHg 59%
    22:00 +20°C° 0 mm 1 mps 725 mmHg 59%
    23:00 +19°C° 0 mm 1 mps 725 mmHg 59%

    28 April, Saturday

    Time Temperature Precipitation Wind Pressure Humidity
    00:00 +19°C° 0 mm 1 mps 725 mmHg 59%
    01:00 +19°C° 0 mm 1 mps 725 mmHg 60%
    02:00 +17°C° 0 mm 2 mps 724 mmHg 61%
    03:00 +17°C° 0 mm 2 mps 724 mmHg 61%
    04:00 +17°C° 0 mm 3 mps 724 mmHg 62%
    05:00 +17°C° 0 mm 3 mps 724 mmHg 63%
    06:00 +17°C° 0 mm 3 mps 724 mmHg 63%
    07:00 +19°C° 0 mm 3 mps 724 mmHg 59%
    08:00 +20°C° 0 mm 3 mps 724 mmHg 54%
    09:00 +21°C° 0 mm 3 mps 724 mmHg 50%
    10:00 +22°C° 0.3 mm 3 mps 724 mmHg 50%
    11:00 +22°C° 0.3 mm 3 mps 724 mmHg 49%
    12:00 +24°C° 0.3 mm 3 mps 724 mmHg 49%
    13:00 +24°C° 0.3 mm 3 mps 724 mmHg 50%
    14:00 +24°C° 0.3 mm 3 mps 724 mmHg 51%
    15:00 +22°C° 0.3 mm 3 mps 724 mmHg 51%
    16:00 +22°C° 0.2 mm 3 mps 724 mmHg 54%
    17:00 +21°C° 0.2 mm 2 mps 724 mmHg 56%
    18:00 +20°C° 0.2 mm 2 mps 725 mmHg 58%
    19:00 +20°C° 0.2 mm 2 mps 725 mmHg 60%
    20:00 +20°C° 0.2 mm 1 mps 726 mmHg 61%
    21:00 +20°C° 0.2 mm 1 mps 727 mmHg 62%
    22:00 +20°C° 0.3 mm 1 mps 727 mmHg 64%
    23:00 +19°C° 0.3 mm 1 mps 727 mmHg 66%

    29 April, Sunday

    Time Temperature Precipitation Wind Pressure Humidity
    00:00 +19°C° 0.3 mm 1 mps 727 mmHg 68%
    01:00 +19°C° 0.2 mm 1 mps 727 mmHg 69%
    02:00 +18°C° 0.2 mm 1 mps 727 mmHg 70%
    03:00 +18°C° 0.2 mm 1 mps 727 mmHg 71%
    04:00 +18°C° 0.2 mm 1 mps 727 mmHg 71%
    05:00 +17°C° 0.2 mm 2 mps 727 mmHg 71%
    06:00 +17°C° 0.2 mm 2 mps 728 mmHg 71%
    07:00 +19°C° 0.1 mm 2 mps 728 mmHg 66%
    08:00 +20°C° 0.1 mm 2 mps 728 mmHg 61%
    09:00 +21°C° 0.1 mm 2 mps 728 mmHg 56%
    10:00 +23°C° 0.1 mm 2 mps 728 mmHg 53%
    11:00 +24°C° 0.1 mm 2 mps 728 mmHg 50%
    12:00 +25°C° 0.1 mm 2 mps 728 mmHg 46%
    13:00 +26°C° 0.2 mm 3 mps 727 mmHg 45%
    14:00 +26°C° 0.2 mm 4 mps 727 mmHg 44%
    15:00 +27°C° 0.2 mm 4 mps 727 mmHg 43%
    16:00 +26°C° 0.2 mm 5 mps 727 mmHg 46%
    17:00 +25°C° 0.2 mm 5 mps 727 mmHg 50%
    18:00 +23°C° 0.2 mm 5 mps 727 mmHg 53%
    19:00 +22°C° 0 mm 5 mps 728 mmHg 58%
    20:00 +21°C° 0 mm 5 mps 728 mmHg 62%
    21:00 +19°C° 0 mm 5 mps 728 mmHg 66%
    22:00 +17°C° 0 mm 5 mps 728 mmHg 66%
    23:00 +17°C° 0 mm 5 mps 728 mmHg 66%

    30 April, Monday

    Time Temperature Precipitation Wind Pressure Humidity
    00:00 +16°C° 0 mm 5 mps 728 mmHg 67%
    01:00 +15°C° 0 mm 4 mps 729 mmHg 65%
    02:00 +15°C° 0 mm 4 mps 729 mmHg 64%
    03:00 +14°C° 0 mm 3 mps 729 mmHg 63%
    04:00 +14°C° 0 mm 3 mps 729 mmHg 62%
    05:00 +14°C° 0 mm 3 mps 729 mmHg 61%
    06:00 +14°C° 0 mm 3 mps 729 mmHg 60%
    07:00 +16°C° 0 mm 3 mps 729 mmHg 55%
    08:00 +18°C° 0 mm 3 mps 729 mmHg 49%
    09:00 +19°C° 0 mm 4 mps 729 mmHg 44%
    10:00 +20°C° 0 mm 4 mps 729 mmHg 42%
    11:00 +21°C° 0 mm 4 mps 729 mmHg 40%
    12:00 +22°C° 0 mm 4 mps 728 mmHg 37%
    13:00 +22°C° 0 mm 4 mps 728 mmHg 36%
    14:00 +23°C° 0 mm 4 mps 727 mmHg 35%
    15:00 +23°C° 0 mm 4 mps 727 mmHg 34%
    16:00 +22°C° 0 mm 4 mps 727 mmHg 37%
    17:00 +22°C° 0 mm 4 mps 727 mmHg 40%
    18:00 +21°C° 0 mm 3 mps 727 mmHg 43%
    19:00 +20°C° 0 mm 3 mps 727 mmHg 46%
    20:00 +18°C° 0 mm 3 mps 728 mmHg 49%
    21:00 +17°C° 0 mm 2 mps 728 mmHg 51%
    22:00 +16°C° 0 mm 2 mps 728 mmHg 54%
    23:00 +16°C° 0 mm 2 mps 728 mmHg 56%
    Show more